Tracking 19976 objects as of 15-Nov-2019
Live streaming from Space Station
objects crossing your sky now
Track the group of recently launched Starlink satellites

WESTFORD NEEDLES

Track WESTFORD NEEDLES now!
10-day predictions
WESTFORD NEEDLES is classified as:


NORAD ID: 2362
Int'l Code: 1963-014M
Perigee: 1,360.9 km
Apogee: 5,728.9 km
Inclination: 85.9 °
Period: 163.8 minutes
Semi major axis: 9915 km
RCS: 0.2493 m2 (medium)
Launch date: May 9, 1963
Source: United States (US)
Launch site: AIR FORCE WESTERN TEST RANGE (AFWTR)
aabbcc
Your satellite tracking list
Your tracking list is empty




NASA's NSSDC Master Catalog

Two Line Element Set (TLE):
1  2362U 63014M   19318.19431188  .00003661  00000-0  11373+0 0  9994
2  2362  85.8567  50.3499 2202528 336.8251  14.6519  8.79233443794552
Source of the keplerian elements: AFSPC